Regional Weather Roundup
Issued by NWS

Home | Current Version | Previous Version | Graphics & Text | Print | Product List | Glossary On
Versions: 1 2 3 4 5 6 7 8 9 10 11 12 13 14 15 16 17 18 19 20 21 22 23 24 25 26 27 28 29 30 31 32 33 34 35 36 37 38 39 40 41 42 43 44 45 46 47 48 49 50
000
ASUS45 KTFX 202110
RWRMT
MONTANA REGIONAL WEATHER ROUNDUP
NATIONAL WEATHER SERVICE GREAT FALLS MT
300 PM MDT SUN MAY 20 2018

NOTE: "FAIR" INDICATES FEW OR NO CLOUDS BELOW 12000 FEET WITH NO
SIGNIFICANT WEATHER AND/OR OBSTRUCTIONS TO VISIBILITY.

MTZ001>007-043-202200-
WEST OF THE DIVIDE

CITY           SKY/WX    TMP DP  RH WIND       PRES   REMARKS
KALISPELL      FAIR      70  46  42 SE7       29.90F
MISSOULA       FAIR      70  50  49 W9        29.89F
BUTTE          CLOUDY    66  42  41 VRB7      29.98F
MULLAN PASS    PTSUNNY   59  40  49 CALM      30.01F
ANACONDA         N/A     70  36  28 S8        29.96S
DEER LODGE       N/A     61  43  51 SW5       29.99R
HAMILTON         N/A     66  48  52 MISG      29.91S
RONAN            N/A     70  48  46 NW6       29.93F
$$

MTZ008-052>055-202200-
SOUTHWEST MONTANA

CITY           SKY/WX    TMP DP  RH WIND       PRES   REMARKS
BOZEMAN        FAIR      68  46  45 W7        29.96F
DILLON         FAIR      66  40  38 NE14      29.94F
ENNIS          CLOUDY    64  45  48 NW8G16    30.02S
W YELLOWSTONE  PTSUNNY   57  39  51 W9        30.05S
$$

MTZ009-010-012-014-046-048-049-054-202200-
EAST SLOPES AND CENTRAL MONTANA

CITY           SKY/WX    TMP DP  RH WIND       PRES   REMARKS
CUT BANK       FAIR      73  38  27 SW14      29.90F
GREAT FALLS    FAIR      75  44  33 SW8       29.91F
MALMSTROM AFB  FAIR      72  45  38 E5        29.91F
HELENA         FAIR      69  51  52 NW7       29.93F
AUGUSTA        FAIR      68  43  40 SE10      29.93F
BOWMANS CRNR   FAIR      68  43  40 S12       29.91F
CHOTEAU          N/A     72  46  40 SE13      29.93F
POWER          FAIR      71  45  39 S12       29.91F
RAYNESFORD     FAIR      72  41  33 NE9       29.93F
WHITE SULPHUR    N/A     68  41  37 S8G15     29.97F
$$

MTZ011-013-016-021-045-047-050-051-202200-
NORTH CENTRAL MONTANA

CITY           SKY/WX    TMP DP  RH WIND       PRES   REMARKS
HAVRE          FAIR      74  45  35 VRB3      29.90F
LEWISTOWN      FAIR      72  42  34 CALM      29.96F
N BAR RANCH    FAIR      64  48  55 S12G22    30.03F
CHINOOK          N/A     75  45  33 SE9       29.90F
DENTON         FAIR      74  49  41 S12       29.91F
GEYSER         FAIR      73  38  27 E9G17     29.94F
GRASS RANGE    FAIR      69  47  46 S10       29.94F
JUDITH GAP     FAIR      61  50  66 S12       30.01F
ROY            FAIR      69  51  52 SE20      29.95F
STANFORD       FAIR      70  39  32 SE18      29.95F
WINIFRED       FAIR      71  47  42 NE5       29.94F
$$

MTZ017>020-022>027-061-062-202200-
NORTHEAST MONTANA

CITY           SKY/WX    TMP DP  RH WIND       PRES   REMARKS
GLASGOW        FAIR      72  37  28 S20G30    30.01F
GLENDIVE       FAIR      68  39  34 S17G28    30.09F
JORDAN           N/A     69  44  40 S16       30.01F
MALTA          MOSUNNY   73  46  38 S15G26    29.94F
SIDNEY         FAIR      70  38  31 S22       30.10F
WOLF POINT     FAIR      72  37  28 S10G22    30.06F
PLENTYWOOD       N/A     70  27  19 MISG      30.09F
POPLAR           N/A     70  36  28 MISG      30.07F
$$

MTZ028>42-056>058-202200-
SOUTHCENTRAL AND SOUTHEAST MONTANA

CITY           SKY/WX    TMP DP  RH WIND       PRES   REMARKS
BAKER          FAIR      65  37  35 SE23G33   30.12F
BILLINGS       FAIR      68  49  50 SE10      30.00F
LIVINGSTON     FAIR      66  51  58 E14G22    29.98F
MILES CITY     FAIR      71  44  37 SE16G25   30.03F
BIG TIMBER     SUNNY     64  52  63 E9G15     30.01F
FORSYTH          N/A     70  45  40 MISG      30.01F
HARLOWTON      FAIR      62  50  65 E7        30.01F
LAUREL           N/A     68  52  56 NE10G17   30.00F
$$

REGIONAL REPORTS...DAKOTAS

CITY           SKY/WX    TMP DP  RH WIND       PRES   REMARKS
WILLISTON      FAIR      72  32  23 S16G25    30.12F
MINOT          FAIR      75  29  18 SE12G22   30.15F
DICKINSON      FAIR      68  31  25 SE17G25   30.14F
BEACH          FAIR      66  34  30 S17G28    30.15F
CROSBY         FAIR      72  28  20 S14G28    30.12F
TIOGA          FAIR      70  28  21 S17G26    30.15F
WATFORD CITY   FAIR      72  30  21 S18G25    30.12F
BISMARCK       FAIR      70  35  27 S16G23    30.18F
GRAND FORKS    FAIR      74  36  25 SE9       30.17F
FARGO          FAIR      70  35  27 VRB3      30.18F
BUFFALO SD       N/A     65  32  29 SE21      30.08F
RAPID CITY     FAIR      58  40  51 SE9       30.16F
$$

REGIONAL REPORTS...WYOMING/IDAHO/WASHINGTON

CITY           SKY/WX    TMP DP  RH WIND       PRES   REMARKS
GILLETTE       FAIR      63  43  48 SE17G25   30.10F
SHERIDAN       FAIR      71  45  39 SE18      29.99F
BUFFALO WY     FAIR      67  43  41 SE22G36   30.05F
CODY           FAIR      66  40  38 E8        30.03F
YELLOWSTONE LA   N/A     58  34  40 E5        30.13F
IDAHO FALLS    FAIR      74  41  30 S10       29.92F
SALMON         LGT RAIN  63  45  51 SW22G41   29.93R
BOISE          PTSUNNY   69  53  56 CALM      29.86S
SPOKANE        FAIR      72  45  37 N6        29.91F
$$

REGIONAL REPORTS...ALBERTA

CITY           SKY/WX    TMP DP  RH WIND       PRES   REMARKS
CALGARY        MOSUNNY   73  41  31 S12       29.79F
CARDSTON         N/A     72  37  28 W10G18      N/A
EDMONTON       SUNNY     72  43  35 SE13G18   29.78F
FORT MCMURRAY  SUNNY     79  32  18 S8G20     29.78F
HIGH LEVEL     MOSUNNY   79  34  19 SE10      29.69F
LETHBRIDGE     PTSUNNY   75  43  31 W13G21    29.83F
LLOYDMINSTER   MOSUNNY   72  41  33 SE22G29   29.86F
MEDICINE HAT   MOSUNNY   75  43  31 S16G24    29.84F
MILK RIVER       N/A     75  45  33 S15G22      N/A
PEACE RIVER    MOSUNNY   77  41  27 SE8       29.70F
PINCHER CREEK    N/A     70  36  28 W26       29.87
WATERTON GATE    N/A     66  36  32 SW13G20     N/A
$$

REGIONAL REPORTS...SASKATCHEWAN

CITY           SKY/WX    TMP DP  RH WIND       PRES   REMARKS
CORONACH         N/A     70  28  21 S24G31      N/A
CYPRESS HILLS    N/A     66  37  34 S10         N/A
ESTEVAN        MOSUNNY   73  28  19 S16G25    30.11F
PRINCE ALBERT  MOSUNNY   75  28  17 S16G25    30.00F
REGINA         SUNNY     73  25  16 S23G32    30.05F
ROCKGLEN         N/A     66  34  30 S25G32      N/A
SASKATOON      MOSUNNY   75  30  19 S24G31    29.97F
SWIFT CURRENT  SUNNY     73  43  33 S28G37    29.93F
VAL MARIE        N/A     72  41  33 S24G32      N/A
$$



USA.gov is the U.S. government's official web portal to all federal, state and local government web resources and services.